Total_Precipitation_Accumulation
0.14 0.18 0.27 0.31 0.26 0.26 0.26 0.30 0.45 0.39 0.49 0.70 0.76 0.68 0.63 0.55 0.43 0.37 0.35 0.30 0.30 0.36 0.45 0.50 0.46 0.44 0.41 0.45 0.51 0.53 0.62 0.71 0.71 0.65 0.60 0.57 0.50 0.41 0.38 0.36 0.32 0.36 0.44 0.50
0.15 0.20 0.26 0.29 0.26 0.21 0.18 0.19 0.25 0.29 0.42 0.49 0.45 0.51 0.53 0.49 0.45 0.40 0.38 0.32 0.29 0.28 0.30 0.38 0.40 0.40 0.38 0.37 0.42 0.47 0.51 0.55 0.60 0.63 0.57 0.51 0.44 0.38 0.35 0.32 0.33 0.36 0.42 0.45
0.23 0.23 0.29 0.35 0.29 0.21 0.17 0.15 0.22 0.38 0.55 0.49 0.43 0.47 0.47 0.41 0.36 0.35 0.25 0.21 0.20 0.21 0.22 0.24 0.25 0.30 0.41 0.39 0.36 0.43 0.50 0.51 0.56 0.61 0.57 0.48 0.38 0.37 0.36 0.36 0.40 0.45 0.44 0.43
0.32 0.40 0.53 0.35 0.20 0.20 0.22 0.18 0.16 0.27 0.39 0.41 0.37 0.38 0.40 0.35 0.30 0.25 0.17 0.15 0.15 0.14 0.14 0.14 0.15 0.19 0.28 0.35 0.42 0.45 0.51 0.54 0.57 0.59 0.58 0.55 0.49 0.47 0.49 0.52 0.53 0.55 0.52 0.47
0.42 0.53 0.45 0.28 0.24 0.27 0.30 0.28 0.20 0.24 0.30 0.30 0.33 0.33 0.38 0.30 0.26 0.21 0.15 0.15 0.18 0.17 0.14 0.16 0.20 0.24 0.34 0.46 0.52 0.55 0.56 0.60 0.60 0.64 0.70 0.71 0.65 0.59 0.60 0.62 0.58 0.58 0.58 0.53
0.50 0.63 0.59 0.40 0.30 0.26 0.32 0.55 0.40 0.33 0.31 0.28 0.31 0.42 0.46 0.30 0.25 0.20 0.18 0.16 0.15 0.17 0.18 0.20 0.25 0.35 0.46 0.60 0.70 0.71 0.65 0.63 0.67 0.71 0.77 0.84 0.82 0.76 0.72 0.73 0.66 0.61 0.58 0.58
0.60 0.70 0.55 0.38 0.32 0.37 0.65 0.79 0.50 0.45 0.41 0.37 0.35 0.36 0.32 0.23 0.19 0.18 0.20 0.20 0.19 0.20 0.23 0.27 0.28 0.37 0.54 0.62 0.71 0.77 0.74 0.73 0.82 0.90 0.95 0.99 1.05 1.03 0.99 0.90 0.83 0.77 0.70 0.70
0.79 0.91 0.83 0.51 0.43 0.61 0.75 0.59 0.52 0.48 0.45 0.40 0.36 0.33 0.29 0.25 0.18 0.14 0.15 0.18 0.23 0.29 0.32 0.31 0.32 0.42 0.55 0.62 0.67 0.76 0.80 0.87 0.94 1.05 1.03 1.06 1.30 1.33 1.31 1.22 1.04 0.95 0.90 0.86
0.96 0.94 0.72 0.66 0.69 0.73 0.74 0.64 0.57 0.46 0.38 0.34 0.32 0.31 0.35 0.35 0.26 0.20 0.17 0.18 0.23 0.33 0.40 0.47 0.53 0.61 0.71 0.70 0.74 0.83 0.94 1.04 1.07 1.12 1.23 1.29 1.39 1.39 1.37 1.33 1.21 1.08 1.03 0.97
1.01 0.93 0.83 0.71 0.58 0.62 0.76 0.67 0.49 0.38 0.36 0.33 0.32 0.27 0.25 0.25 0.25 0.23 0.22 0.24 0.25 0.31 0.46 0.62 0.73 0.76 0.76 0.78 0.88 1.00 1.12 1.22 1.27 1.31 1.31 1.35 1.46 1.45 1.41 1.34 1.27 1.20 1.16 1.08
0.98 0.96 0.94 0.81 0.53 0.41 0.45 0.40 0.32 0.35 0.36 0.35 0.34 0.27 0.22 0.20 0.21 0.22 0.24 0.28 0.34 0.42 0.53 0.59 0.71 0.85 0.93 1.04 1.18 1.24 1.24 1.28 1.32 1.36 1.44 1.50 1.50 1.49 1.47 1.44 1.30 1.24 1.21 1.21
0.93 0.82 0.80 0.71 0.53 0.40 0.31 0.28 0.25 0.33 0.39 0.33 0.28 0.29 0.28 0.23 0.24 0.24 0.25 0.32 0.41 0.53 0.65 0.73 0.86 1.00 1.08 1.19 1.36 1.50 1.47 1.38 1.42 1.45 1.52 1.56 1.53 1.45 1.35 1.26 1.13 1.05 1.04 1.03
0.70 0.62 0.55 0.51 0.47 0.41 0.32 0.30 0.28 0.29 0.33 0.32 0.27 0.25 0.26 0.27 0.27 0.27 0.29 0.36 0.44 0.53 0.63 0.72 0.81 0.96 1.08 1.17 1.26 1.40 1.43 1.41 1.42 1.45 1.53 1.58 1.57 1.54 1.53 1.39 1.22 1.09 1.05 1.02
0.55 0.55 0.54 0.49 0.50 0.50 0.46 0.43 0.39 0.33 0.37 0.39 0.36 0.31 0.30 0.31 0.31 0.33 0.39 0.45 0.48 0.51 0.56 0.67 0.80 0.88 0.95 1.08 1.20 1.27 1.31 1.30 1.29 1.27 1.27 1.29 1.34 1.39 1.44 1.40 1.29 1.14 1.00 0.91
0.45 0.49 0.54 0.51 0.52 0.55 0.54 0.50 0.46 0.42 0.41 0.42 0.40 0.39 0.41 0.44 0.43 0.43 0.45 0.48 0.54 0.56 0.56 0.68 0.84 0.91 0.97 1.10 1.19 1.22 1.24 1.21 1.15 1.14 1.12 1.19 1.23 1.24 1.26 1.28 1.22 1.11 0.96 0.90
0.50 0.47 0.51 0.55 0.59 0.62 0.54 0.51 0.50 0.43 0.37 0.38 0.42 0.46 0.47 0.51 0.53 0.54 0.54 0.55 0.66 0.72 0.72 0.79 0.88 0.94 1.05 1.13 1.17 1.19 1.16 1.16 1.18 1.15 1.13 1.17 1.22 1.21 1.18 1.21 1.19 1.12 0.96 0.87
0.63 0.66 0.66 0.66 0.69 0.66 0.62 0.58 0.53 0.45 0.40 0.43 0.46 0.45 0.46 0.51 0.57 0.61 0.61 0.62 0.67 0.70 0.77 0.87 0.91 0.96 1.11 1.24 1.25 1.20 1.11 1.03 1.09 1.12 1.09 1.10 1.17 1.19 1.17 1.18 1.15 1.06 0.91 0.80
0.67 0.66 0.67 0.70 0.72 0.72 0.71 0.69 0.61 0.60 0.58 0.59 0.64 0.59 0.56 0.55 0.60 0.65 0.66 0.66 0.69 0.69 0.72 0.86 0.96 1.01 1.08 1.30 1.40 1.31 1.17 1.05 0.97 0.98 0.99 1.00 1.03 1.10 1.07 1.04 1.03 0.96 0.85 0.77
0.63 0.63 0.63 0.65 0.63 0.67 0.74 0.76 0.65 0.57 0.56 0.57 0.68 0.68 0.61 0.61 0.65 0.65 0.68 0.72 0.78 0.82 0.79 0.81 0.95 0.98 1.01 1.15 1.29 1.24 1.10 1.04 0.96 0.93 0.98 1.00 1.00 1.02 0.99 0.96 0.96 0.91 0.81 0.77
0.68 0.69 0.66 0.65 0.63 0.64 0.70 0.74 0.69 0.58 0.58 0.63 0.65 0.66 0.65 0.63 0.65 0.68 0.72 0.75 0.80 0.86 0.86 0.84 0.76 0.79 0.89 1.02 1.15 1.11 1.04 0.98 0.91 0.86 0.88 0.94 0.95 0.92 0.84 0.80 0.83 0.80 0.72 0.66
0.69 0.66 0.65 0.64 0.64 0.62 0.65 0.73 0.76 0.68 0.64 0.65 0.66 0.67 0.69 0.68 0.67 0.72 0.81 0.82 0.76 0.75 0.76 0.80 0.72 0.67 0.72 0.90 1.02 0.97 0.95 0.93 0.88 0.82 0.86 0.92 0.86 0.78 0.69 0.67 0.67 0.65 0.65 0.64
0.63 0.62 0.62 0.64 0.64 0.61 0.54 0.58 0.65 0.63 0.60 0.59 0.59 0.63 0.71 0.75 0.75 0.74 0.74 0.81 0.79 0.77 0.72 0.70 0.67 0.65 0.66 0.74 0.81 0.88 0.88 0.91 0.87 0.79 0.78 0.81 0.82 0.77 0.70 0.69 0.69 0.65 0.62 0.63
0.48 0.44 0.45 0.49 0.57 0.58 0.45 0.43 0.45 0.46 0.48 0.50 0.52 0.62 0.74 0.76 0.80 0.87 0.83 0.73 0.73 0.73 0.67 0.64 0.61 0.58 0.56 0.55 0.63 0.70 0.73 0.79 0.80 0.74 0.70 0.67 0.67 0.62 0.60 0.61 0.62 0.58 0.57 0.56
0.39 0.33 0.32 0.36 0.43 0.47 0.47 0.45 0.41 0.40 0.40 0.43 0.44 0.52 0.71 0.81 0.77 0.71 0.70 0.71 0.70 0.62 0.59 0.57 0.51 0.47 0.46 0.47 0.56 0.63 0.66 0.70 0.72 0.73 0.68 0.64 0.61 0.57 0.57 0.57 0.54 0.51 0.51 0.48
0.33 0.29 0.27 0.33 0.42 0.47 0.50 0.51 0.46 0.44 0.46 0.48 0.48 0.52 0.65 0.78 0.82 0.71 0.61 0.61 0.66 0.55 0.51 0.51 0.48 0.47 0.47 0.52 0.62 0.69 0.69 0.69 0.69 0.72 0.67 0.58 0.54 0.52 0.50 0.52 0.51 0.51 0.49 0.44
0.30 0.29 0.28 0.31 0.41 0.52 0.57 0.62 0.63 0.61 0.68 0.70 0.65 0.65 0.69 0.72 0.73 0.70 0.66 0.61 0.60 0.54 0.48 0.50 0.49 0.48 0.49 0.54 0.60 0.64 0.67 0.67 0.66 0.67 0.66 0.62 0.57 0.53 0.52 0.51 0.49 0.47 0.42 0.39
0.30 0.33 0.38 0.39 0.42 0.50 0.58 0.68 0.81 0.88 0.94 1.00 1.00 0.92 0.84 0.77 0.72 0.67 0.66 0.66 0.64 0.59 0.55 0.53 0.54 0.54 0.53 0.54 0.58 0.65 0.71 0.71 0.64 0.60 0.61 0.63 0.63 0.57 0.51 0.48 0.45 0.43 0.41 0.42